sat.trackr.live / text

‹ back to catalog

ONEWEB-0692

NORAD 61600 · 2024-188G

PAYLOAD ACTIVE UNKNOWN

§ Identity

Operator
Country
UK
Launch date
2024-10-20
Launch site
AFWTR
Launch vehicle
Mass (kg)
RCS (m²)

Purposes: comms

External: N2YO · Heavens-Above · Gunter

§ Orbital elements

Epoch: 2026-05-25T02:21:32.363136Z

Period
109.80 min
Inclination
87.8909°
Eccentricity
0.0001050
Mean motion
13.11418431 rev/d
Perigee alt
1,216.9 km
Apogee alt
1,218.5 km
Semi-major
7,595.8 km
B*
-2.1358e-5
RAAN
25.6790°
Arg perigee
94.4245°
Mean anomaly
265.7003°
Rev number
8,144

§ Raw data

ONEWEB-06921 61600U 24188G   26145.09829124  .00000005  00000+0 -21358-4 0  99972 61600  87.8909  25.6790 0001050  94.4245 265.7003 13.11418431 81446

JSON: /api/v1/satellites/61600 · /tle

For live sub-satellite position, see the globe view (requires WebGL).

§ Visibility from observer

Set your observer location to see the next 7 days of passes ≥ 10°. The values pass through the URL so the page stays shareable.

No JS? Fill the form by hand. The geolocation button needs JavaScript.